GFSNIL_sfc_thetae_111.txt.gz
Theta_e
311 328 325 324 325 324 324 324 323 325 326 326 326 324 323 323 323 324 323 323 323 321
308 324 327 325 324 324 324 323 323 325 324 324 323 323 323 322 322 323 323 322 323 321
311 317 329 327 323 323 323 322 322 322 321 320 320 320 320 320 321 321 322 322 320 319
315 321 328 326 324 323 322 321 320 319 319 319 318 319 318 319 319 319 320 321 320 319
302 307 322 323 323 322 322 321 321 319 318 318 317 319 318 317 319 319 319 320 319 318
297 299 302 310 321 322 321 320 320 319 318 318 318 317 318 318 317 319 319 319 319 318
293 296 296 298 303 321 321 320 319 319 318 317 317 317 317 317 317 317 319 319 319 319
292 293 293 293 293 296 318 319 319 318 318 318 317 312 317 317 316 316 315 316 316 318
290 291 290 290 290 290 291 295 302 303 303 300 296 291 292 301 316 316 315 315 315 315
288 288 288 289 289 288 287 287 288 290 293 292 291 291 293 294 306 304 301 302 309 301
285 286 287 287 286 286 286 286 285 286 287 288 288 289 290 290 291 289 289 289 291 293
284 284 285 284 285 285 285 284 285 285 285 286 286 288 288 288 287 286 285 286 288 289
281 281 283 283 283 284 284 283 284 283 284 285 285 287 287 287 286 284 284 284 285 287
279 280 281 282 282 283 282 282 282 282 283 283 284 285 286 286 285 284 283 283 283 284

GFSNIL_sfc_thetae_114.txt.gz
Theta_e
309 311 327 325 326 325 326 326 329 328 328 327 327 327 327 326 326 325 324 323 323 323
307 310 312 326 325 324 324 324 322 326 325 326 326 326 326 325 323 323 323 323 323 323
305 311 312 318 324 324 323 321 321 323 325 325 325 325 324 323 323 322 322 322 322 322
300 303 311 316 327 325 324 322 321 323 323 323 322 322 321 321 320 319 319 320 320 319
297 299 300 303 306 325 323 323 322 322 321 321 320 320 319 318 318 317 317 318 319 319
294 295 295 297 300 303 321 322 321 321 320 319 319 318 317 317 317 318 318 319 319 319
291 292 293 294 295 296 299 311 320 320 320 320 319 318 318 316 317 318 318 319 319 320
290 291 291 292 293 294 293 293 296 311 319 318 318 313 317 317 316 316 316 317 318 319
288 288 288 289 290 291 291 290 290 291 293 294 294 291 293 308 316 316 315 315 315 316
286 286 287 287 287 287 288 289 289 289 288 288 288 289 290 293 309 309 303 303 309 306
283 284 285 285 285 285 285 286 286 286 287 287 287 288 288 288 291 290 289 290 292 296
281 282 282 282 283 284 284 283 284 284 285 285 285 287 287 287 286 285 285 287 289 290
280 280 281 281 281 283 284 283 283 283 283 284 284 286 287 287 285 284 284 285 285 286
278 279 279 280 281 282 282 283 282 282 282 282 283 284 285 285 283 283 283 283 283 284

GFSNIL_sfc_thetae_117.txt.gz
Theta_e
310 312 314 329 331 333 330 331 332 331 332 331 330 330 331 330 329 329 329 328 326 326
307 309 313 315 326 330 333 331 331 331 330 329 330 329 329 329 328 327 327 327 326 326
303 305 309 316 316 325 328 330 330 329 329 328 328 327 327 327 328 326 326 326 325 324
298 300 303 306 312 312 326 326 326 327 327 327 325 325 325 326 326 325 324 324 324 323
295 296 298 298 301 305 308 326 325 325 324 325 326 326 324 323 323 323 321 321 322 321
292 293 294 295 297 299 301 305 319 324 323 323 323 322 322 323 322 321 321 320 319 319
290 291 291 293 294 295 297 297 299 301 316 321 320 320 320 321 320 320 320 322 320 322
289 290 290 290 291 293 293 294 295 294 294 295 294 293 294 306 318 319 319 320 320 321
287 287 287 288 288 289 289 290 291 291 291 290 291 289 290 293 307 318 317 316 318 320
286 286 286 286 287 286 287 287 287 288 288 288 288 289 289 291 292 297 305 306 309 313
283 285 285 285 285 285 285 285 285 285 286 286 286 288 288 288 288 287 287 289 291 294
282 282 283 283 284 285 285 284 283 283 284 284 284 287 287 288 288 287 285 285 286 288
281 281 281 282 283 285 285 285 285 284 284 284 284 285 286 286 286 285 285 284 284 285
281 281 282 283 283 283 284 285 284 284 284 284 284 284 284 284 282 282 281 281 282 283

GFSNIL_sfc_thetae_120.txt.gz
Theta_e
314 315 317 322 326 337 334 334 335 335 336 336 336 335 339 337 337 337 336 333 332 331
308 309 311 315 318 319 335 334 335 333 332 333 334 334 335 336 332 334 335 336 335 331
303 305 307 311 315 318 318 329 333 332 331 332 332 331 331 331 331 329 330 331 331 330
298 300 302 303 305 309 313 314 329 330 330 330 329 327 326 327 328 327 328 329 329 329
294 295 296 298 299 302 306 308 317 327 329 329 328 327 325 325 326 326 325 327 326 327
292 292 293 294 296 297 299 301 303 304 309 322 325 326 326 325 324 325 325 326 326 326
291 292 292 292 293 294 295 296 297 297 297 297 297 297 298 306 321 323 323 324 326 324
290 291 291 291 291 292 292 293 293 293 292 293 292 291 292 296 304 317 321 322 321 322
291 290 289 290 290 290 289 290 290 290 289 288 289 289 290 293 303 301 310 316 319 320
288 288 289 288 288 286 287 287 287 288 288 287 287 288 289 289 293 291 291 292 295 298
286 286 287 288 288 288 287 286 285 285 287 286 286 287 287 288 291 289 288 287 288 290
284 285 285 285 286 287 287 287 285 286 285 285 284 286 286 287 288 287 286 286 287 287
284 283 284 285 285 286 287 285 287 285 285 284 285 285 285 285 285 283 282 283 284 285
284 284 284 285 286 285 285 285 285 285 285 285 284 284 284 284 285 285 282 281 281 283

GFSNIL_sfc_thetae_123.txt.gz
Theta_e
313 321 323 319 321 331 333 334 337 338 339 339 337 336 335 334 333 335 332 333 337 336
308 314 315 317 319 321 322 327 336 338 336 336 335 335 335 333 336 336 336 337 338 336
303 306 306 307 309 311 314 317 318 335 336 333 332 334 334 333 334 334 333 334 335 335
299 301 300 301 302 306 310 309 312 322 332 332 331 330 330 329 330 330 328 329 330 330
295 295 295 296 298 302 303 304 303 307 307 318 327 329 327 326 327 328 328 328 327 328
292 292 292 293 293 295 296 297 297 298 298 297 297 298 300 303 319 325 326 327 327 327
291 291 292 292 292 292 292 292 293 294 293 294 293 292 293 297 301 307 317 325 325 326
293 293 292 291 290 290 290 290 291 291 290 290 290 290 291 295 301 305 305 309 322 324
291 291 291 289 290 289 289 289 289 289 289 288 288 288 289 292 294 294 293 294 298 301
289 289 290 291 289 288 287 287 286 287 287 286 286 287 288 289 290 289 288 287 289 292
287 287 288 288 288 288 288 287 286 286 286 286 285 286 287 287 288 286 286 285 286 286
285 285 286 286 286 288 287 287 286 286 286 285 285 286 285 288 286 284 284 284 284 285
286 285 285 286 286 287 288 286 288 286 286 285 285 285 285 286 286 285 284 284 283 284
286 286 286 286 288 287 287 287 286 286 286 285 285 285 285 284 284 284 284 284 283 284

GFSNIL_sfc_thetae_126.txt.gz
Theta_e
309 315 317 315 323 329 332 333 336 333 334 334 334 333 333 332 332 331 330 328 329 329
303 305 308 309 310 316 316 318 321 330 334 335 333 333 332 331 331 331 330 329 329 329
298 300 303 305 305 307 307 308 312 313 325 330 331 331 332 331 331 330 329 330 329 329
294 296 296 297 299 301 301 301 303 305 306 307 313 321 329 330 330 330 330 330 328 327
293 293 293 293 295 296 296 296 296 298 299 299 297 299 302 306 318 325 326 328 328 324
289 290 290 291 292 292 293 293 293 293 293 293 294 294 296 299 302 307 312 321 325 325
288 288 290 289 289 290 291 291 291 290 290 290 291 292 294 299 302 302 303 304 305 307
288 290 289 288 288 288 288 288 289 288 288 288 289 290 292 295 294 293 293 295 295 297
288 289 289 288 288 288 287 287 287 287 286 285 286 288 289 290 290 289 288 288 289 293
287 287 288 288 288 287 286 286 286 286 286 285 285 287 288 288 287 286 285 285 285 287
286 286 286 286 287 286 286 285 285 284 285 284 285 286 287 288 287 285 284 284 284 284
285 285 286 285 286 286 286 286 285 285 283 283 283 285 285 286 286 285 284 285 284 284
285 284 284 284 285 286 286 285 286 285 284 284 282 284 285 284 283 283 283 284 283 284
285 284 284 284 283 283 284 283 283 283 284 283 282 282 283 284 283 283 282 282 282 283

GFSNIL_sfc_thetae_129.txt.gz
Theta_e
303 306 312 312 316 317 312 312 335 335 333 333 332 332 331 331 331 330 330 329 329 328
298 302 308 309 308 313 309 311 315 332 332 333 332 331 331 330 330 330 329 329 329 328
295 297 299 300 300 305 310 309 305 307 316 324 327 331 330 329 329 329 329 329 328 327
293 293 294 294 295 297 300 300 299 301 301 302 303 307 312 318 324 328 328 328 327 327
291 291 290 290 292 293 294 295 294 294 295 295 298 300 303 305 308 311 311 318 324 325
289 289 289 287 288 289 290 290 290 291 291 291 292 295 299 300 300 301 301 301 305 303
287 289 288 288 287 286 287 286 287 287 288 289 289 291 293 293 294 295 295 295 297 295
288 288 288 287 287 287 286 286 286 286 286 287 288 288 289 290 289 289 289 290 291 292
287 287 286 286 285 285 285 285 285 285 285 285 286 288 288 287 286 286 286 285 287 289
286 286 286 286 286 285 284 284 284 283 283 284 285 287 288 287 286 285 284 284 284 285
284 284 285 285 285 285 285 283 283 282 282 282 284 286 286 286 285 284 284 284 284 284
283 282 282 282 283 283 284 284 283 282 281 280 281 285 285 284 284 283 283 283 284 284
283 281 279 279 280 281 281 281 281 281 279 280 279 283 284 283 282 282 282 283 284 285
282 281 279 278 278 278 278 277 277 277 277 276 277 278 282 283 280 281 282 282 282 283

GFSNIL_sfc_thetae_135.txt.gz
Theta_e
290 291 292 296 299 301 304 305 307 311 309 316 319 321 321 321 330 329 328 326 326 327
289 289 290 293 297 302 308 308 313 307 305 307 315 317 318 319 319 329 329 328 328 328
288 288 289 291 292 296 300 304 303 301 300 302 310 314 317 319 320 327 327 327 327 327
286 287 288 288 289 291 294 295 297 297 297 297 298 299 315 319 321 326 326 326 325 324
286 286 286 286 286 289 290 292 292 293 293 293 293 293 294 297 301 301 302 305 308 305
284 285 284 284 285 286 288 289 289 290 289 290 291 291 291 290 291 292 293 293 295 294
283 284 284 284 283 284 285 286 287 287 287 288 288 290 290 290 288 288 288 289 288 291
282 283 283 283 281 282 282 283 285 285 286 286 286 286 287 287 286 286 286 286 286 286
280 281 280 281 281 279 279 280 281 282 283 284 285 287 287 286 285 285 284 284 285 285
278 278 278 278 278 277 276 277 278 280 282 282 283 286 286 285 284 283 283 283 283 284
278 278 277 276 276 276 276 275 275 277 280 282 283 284 284 284 283 283 283 284 283 283
278 277 277 275 275 275 274 274 274 276 277 279 281 284 283 282 282 282 281 283 284 282
278 277 276 276 275 275 274 274 274 275 275 279 279 283 283 281 280 279 279 281 281 283
278 277 276 275 276 274 274 274 273 274 275 275 278 279 282 282 279 278 277 277 278 278

GFSNIL_sfc_thetae_138.txt.gz
Theta_e
288 288 288 289 290 293 295 299 303 305 307 309 314 314 317 320 320 320 318 325 326 326
287 286 287 288 289 291 293 296 300 306 308 309 307 312 316 317 319 320 319 321 325 326
287 286 286 286 286 287 290 293 297 301 301 303 304 306 312 314 316 318 319 319 321 325
285 286 284 284 284 286 288 289 291 295 296 296 297 299 309 313 316 316 313 305 310 323
283 284 282 282 282 283 285 287 288 291 292 293 294 294 296 296 296 295 295 296 297 296
281 281 281 280 280 282 282 284 286 288 288 290 292 292 293 292 291 290 290 290 290 291
279 279 279 279 278 278 281 281 284 285 286 287 288 290 290 290 290 290 289 289 289 288
278 278 278 278 278 277 278 280 282 283 283 285 285 286 286 285 286 287 287 286 286 287
278 278 277 277 277 277 277 278 279 281 282 282 284 286 286 285 283 284 284 284 284 285
278 277 277 277 276 276 276 277 278 279 281 281 282 285 285 285 284 282 281 281 282 282
278 277 277 276 275 275 276 276 276 277 279 280 282 284 283 283 282 282 282 282 281 281
277 276 276 275 275 275 275 275 275 275 277 277 280 283 282 281 280 280 279 280 281 280
277 276 274 275 275 275 275 275 275 275 274 278 276 281 280 280 278 277 277 277 278 280
278 277 276 275 275 274 274 274 273 274 274 273 275 276 279 279 274 274 274 274 274 276

GFSNIL_sfc_thetae_141.txt.gz
Theta_e
288 287 287 286 286 287 288 291 294 297 299 303 308 311 314 318 320 326 323 321 320 322
287 286 285 285 286 286 288 290 293 295 299 307 309 311 313 318 320 324 322 321 321 323
285 285 285 285 285 285 287 288 290 291 295 297 300 303 308 312 320 323 324 323 321 321
284 283 284 283 284 284 285 286 288 289 290 293 295 297 303 311 315 319 319 317 320 320
282 282 282 282 282 282 284 285 285 287 287 288 290 293 294 294 295 297 297 298 299 301
280 280 279 280 281 282 283 284 284 285 285 286 287 287 289 290 290 291 292 292 292 292
279 279 279 279 280 280 281 282 283 283 284 284 285 286 285 285 286 287 287 289 290 289
280 280 279 279 279 280 280 280 282 282 282 283 284 284 284 283 282 282 283 284 286 288
280 280 279 279 279 279 279 279 281 281 282 282 283 285 284 283 282 281 280 280 282 284
280 279 279 279 278 278 278 278 279 279 280 280 281 283 283 282 280 279 280 280 280 280
279 278 278 278 278 278 278 277 276 277 279 280 280 280 281 280 280 279 279 280 280 280
278 278 277 277 277 278 278 278 277 276 276 277 279 279 278 279 278 278 277 278 279 280
279 277 276 277 277 278 278 277 278 277 276 277 276 278 278 277 277 276 275 276 276 278
279 278 278 278 278 277 277 277 277 276 276 275 276 276 277 276 274 274 274 275 274 276

GFSNIL_sfc_thetae_147.txt.gz
Theta_e
291 290 289 288 288 288 289 288 289 288 290 291 293 296 299 303 303 307 311 312 317 320
290 289 288 288 288 288 289 289 289 288 288 289 290 293 298 303 305 308 312 315 318 320
288 288 288 287 287 287 288 288 287 287 287 288 288 290 294 297 297 298 297 299 303 311
287 287 286 285 286 286 287 287 287 286 286 285 286 287 288 290 292 291 291 291 292 293
286 286 285 284 284 286 286 286 286 286 284 284 284 285 285 285 286 286 286 287 287 288
285 284 284 284 284 284 285 285 284 284 283 282 283 283 284 284 284 284 284 285 286 286
286 285 285 285 284 283 284 283 284 282 282 282 282 282 283 283 282 283 284 284 285 286
286 286 286 286 286 284 283 283 283 283 281 281 283 282 281 281 281 281 281 282 282 284
287 287 287 287 286 285 284 283 282 282 281 279 281 282 282 281 280 281 280 279 280 280
286 285 285 286 286 285 284 284 282 282 281 280 279 281 282 281 281 279 279 279 279 279
285 284 284 284 284 284 284 283 281 280 280 279 279 279 281 281 280 279 278 278 278 278
284 283 283 283 283 284 283 283 282 281 279 279 279 279 279 280 280 278 277 277 277 277
283 282 282 283 283 283 283 283 283 282 281 279 279 278 278 278 278 277 278 277 276 277
283 284 284 283 283 283 283 282 283 283 282 281 279 279 278 277 277 278 276 276 275 276